User: anonymous   Login
Location: Amon Carter Post Office
(32.8281°N, 97.0484°W)
Time: 13:29:24
(UTC+00:00)
Language:

Cosmos 1328 Rocket - Orbit

View from above orbital plane
View from above orbital plane
View from above satellite
View from above satellite

Ground track
Ground track

The orbit data is extracted from the following two-line orbital elements,

1 12988U 81117B   22141.90817329  .00000527  00000-0  58859-4 0  9998
2 12988  82.5251 184.9711 0018571  25.6671 147.4651 14.84943206165813
Epoch (UTC): 21 May 2022 21:47:46
Eccentricity: 0.0018571
inclination: 82.5251°
perigee height: 601 km
apogee height: 627 km
right ascension of ascending node: 184.9711°
argument of perigee: 25.6671°
revolutions per day: 14.84943206
mean anomaly at epoch: 147.4651°
orbit number at epoch: 16581

The dashed part of the orbit path shows where the satellite is in the earth's shadow,  

DLR